Wind_Speed
14 14 15 16 16 16 17 18 19 19 20 21 21 22 22 22 22 22 23 24 25 26 26 26 27 27 27 28 28 28 28 27 26 26 26 26 26 25 24 22 22 21 21 21 21 21 21 22 22 22 22 22 22 21 20 19 18 17 17 16 16 16 16 16 16 16 16 17 17 17 17 17 17 17 16 16 16 17 17 17 17 17 17 16 15
15 16 17 17 17 17 17 18 18 19 19 20 21 22 22 22 22 22 23 24 25 26 26 27 27 28 28 28 29 29 29 28 28 27 26 26 26 26 25 24 23 22 22 22 22 22 22 22 23 23 23 23 22 21 21 20 18 17 17 17 17 16 16 17 16 16 17 17 17 17 17 17 17 17 17 17 17 18 18 19 18 18 17 17 16
13 14 16 17 17 17 17 18 18 19 19 20 21 22 22 23 22 22 22 23 24 26 27 27 28 28 28 29 29 29 29 29 29 28 27 27 26 26 26 25 24 23 23 23 22 23 23 23 23 23 23 23 23 22 21 20 19 18 17 17 17 17 17 17 17 16 16 16 16 16 16 16 17 17 17 18 19 19 19 19 18 18 17 16 15
13 14 14 15 15 16 16 17 18 18 19 20 20 21 22 23 23 23 23 23 24 24 26 27 27 28 28 29 30 30 30 30 30 29 29 28 27 26 26 25 24 24 24 24 23 23 23 23 23 24 24 24 23 22 21 20 19 19 18 18 18 17 17 17 17 16 16 16 16 16 16 17 17 18 19 19 19 19 19 18 18 16 15 15 14
14 15 15 15 15 15 15 15 16 17 18 19 20 21 22 22 23 24 24 24 24 24 25 26 27 28 28 29 30 30 30 30 30 30 29 29 28 28 27 26 25 24 23 23 23 23 24 23 24 24 24 24 23 22 21 19 19 18 18 18 18 17 17 17 16 16 16 16 16 16 16 17 18 19 19 20 20 19 19 17 16 15 15 14 13
14 16 16 16 16 16 16 16 16 17 17 18 19 20 21 22 23 23 24 24 24 25 25 26 27 28 28 29 30 30 30 30 30 30 30 29 28 28 28 28 27 25 24 23 23 23 23 23 23 23 23 23 22 22 21 20 19 19 19 19 18 17 17 16 16 16 16 16 16 17 17 18 19 19 20 20 19 19 17 16 15 15 14 14 13
15 16 17 18 18 17 16 17 16 17 17 18 18 19 20 21 22 22 22 23 23 24 25 26 26 27 28 29 29 30 30 30 30 30 30 29 28 27 26 26 26 26 25 25 24 24 23 23 23 23 23 23 23 22 22 21 20 19 19 18 18 18 17 17 17 17 17 17 17 18 19 19 20 20 20 19 18 17 16 15 14 14 13 13 13
16 16 17 18 18 18 17 18 17 17 18 18 19 19 20 21 21 21 21 22 22 23 24 25 26 27 27 28 28 29 29 29 29 29 29 28 27 26 25 24 24 24 24 24 24 24 23 23 23 23 23 23 23 23 22 20 19 19 18 18 18 18 18 18 18 18 18 18 19 20 20 20 20 20 19 18 16 15 14 13 13 13 12 13 13
15 15 16 17 17 17 17 17 18 18 19 19 20 21 21 21 21 21 22 21 21 21 22 23 24 25 26 27 28 28 29 28 28 28 27 27 26 25 24 23 23 22 21 21 21 21 22 21 21 21 22 22 22 22 20 19 19 19 19 19 19 19 19 19 19 19 19 20 21 21 20 20 19 18 18 17 16 14 13 13 12 12 12 12 13
14 15 15 15 15 16 16 17 18 19 19 20 21 21 21 21 21 22 22 22 21 21 21 22 23 24 24 25 26 27 27 26 26 26 26 26 25 24 23 22 22 21 21 20 20 20 20 20 20 20 21 21 21 21 20 20 20 20 20 20 20 20 20 20 20 21 21 21 21 20 19 18 17 16 16 16 15 14 13 12 11 11 11 12 13
13 13 14 14 14 14 15 16 17 19 20 21 21 22 22 22 21 22 22 22 22 21 21 22 22 23 23 24 24 24 24 24 24 25 25 24 23 23 22 21 21 21 21 21 20 20 20 20 20 20 21 21 21 21 21 21 21 21 21 21 21 21 21 22 22 22 21 21 19 19 18 18 17 16 16 16 15 14 13 12 12 12 11 12 13
12 12 13 13 14 14 14 15 17 19 20 21 22 22 22 22 22 22 21 21 22 21 21 21 22 22 22 22 22 22 22 23 24 24 24 23 22 22 21 21 21 21 21 21 20 20 20 20 20 21 21 22 22 22 22 22 22 22 22 22 22 22 22 22 21 21 20 19 18 17 17 16 16 16 16 16 16 15 15 14 14 13 13 13 13
11 11 12 13 13 13 14 15 17 18 19 21 22 22 22 22 22 22 22 21 21 21 21 21 20 20 20 20 20 20 21 22 22 22 22 21 21 20 20 20 20 20 20 20 20 20 20 20 21 21 22 22 23 23 23 23 23 23 23 23 23 22 22 21 20 19 18 17 16 15 15 14 14 14 14 14 14 14 13 13 12 12 12 12 13
11 10 11 12 13 13 14 15 16 18 19 20 21 22 23 23 23 23 22 22 22 22 21 21 19 18 17 17 18 19 20 20 20 20 20 20 19 19 19 19 19 19 19 20 20 20 20 21 21 21 22 23 23 24 24 24 24 24 24 24 23 22 22 20 19 17 16 15 15 14 14 14 13 13 13 13 12 11 11 11 12 11 12 12 12
12 11 10 11 12 13 14 14 15 17 19 20 21 23 24 24 24 23 23 23 22 22 21 20 19 17 17 17 17 18 18 18 19 19 19 19 19 18 18 18 18 18 18 19 20 20 20 21 21 21 22 22 23 23 24 24 24 24 24 24 23 23 21 20 18 17 16 15 15 14 14 13 13 12 12 12 12 11 12 12 12 12 12 12 12
13 12 10 11 12 13 13 14 15 17 19 20 22 23 24 23 23 22 22 23 22 22 21 20 19 18 18 18 18 18 17 17 17 18 18 18 18 17 17 17 17 17 17 18 19 20 20 20 21 21 22 22 22 23 23 24 24 24 24 24 24 23 22 21 19 18 16 15 15 14 13 13 12 12 12 12 12 13 13 13 13 13 13 13 13
13 13 11 11 12 14 14 14 15 16 19 21 22 22 21 21 20 21 22 23 23 22 21 20 18 18 19 18 18 17 17 17 17 17 17 17 17 17 16 16 16 16 16 17 18 19 20 20 21 21 22 22 22 22 23 23 23 23 23 24 24 23 22 21 19 18 16 15 15 14 13 12 12 12 12 12 13 14 14 14 14 14 14 14 14
14 13 12 12 13 14 15 16 17 18 20 21 20 20 19 19 20 22 23 23 21 21 20 18 18 18 19 18 17 17 17 16 16 16 16 16 16 15 15 15 16 16 16 17 17 18 19 20 21 21 22 22 22 22 22 22 23 23 23 23 23 22 21 20 19 18 16 15 14 14 13 12 12 12 13 13 14 14 15 15 15 15 15 15 15
14 14 12 13 13 15 17 18 20 21 20 19 19 19 20 21 23 25 23 21 20 20 19 18 18 19 19 19 18 18 17 17 16 16 16 15 15 15 14 14 15 16 17 17 17 18 19 20 21 22 22 22 23 23 22 22 22 22 23 23 22 22 21 20 19 17 16 15 14 13 13 13 13 13 13 14 14 15 15 15 15 15 15 15 16
15 15 13 13 13 15 17 20 22 21 18 18 19 19 21 22 25 26 23 22 21 20 20 19 19 20 21 20 19 19 18 17 16 16 15 15 15 15 15 14 15 16 17 17 17 18 19 20 21 22 22 23 23 23 22 22 22 22 22 22 22 21 20 19 18 16 15 14 14 13 13 13 13 14 14 15 15 15 15 16 16 16 16 16 17
15 15 15 15 15 15 17 20 23 20 17 18 19 20 21 23 26 25 23 23 22 20 19 19 20 21 22 21 20 19 19 18 17 16 15 15 15 15 15 15 15 16 17 17 18 18 19 20 21 22 22 23 23 22 22 21 22 22 22 22 22 21 20 19 18 17 16 15 15 15 15 15 15 15 15 15 15 16 16 16 16 17 17 17 18
15 16 16 16 16 17 18 20 22 21 18 18 19 20 21 24 26 26 25 23 21 20 19 18 19 20 21 22 21 20 20 20 19 17 16 15 15 16 16 17 17 17 18 18 19 19 19 20 21 22 23 23 22 22 22 21 21 21 21 21 21 21 21 20 19 18 18 17 17 17 16 16 15 15 15 16 16 16 17 17 17 18 18 19 19
16 16 17 17 16 18 19 20 20 20 18 17 18 20 21 24 26 26 25 23 21 20 19 18 17 18 20 20 20 21 22 22 21 19 17 15 16 17 18 18 18 18 18 19 19 20 19 20 21 22 23 23 22 22 21 21 21 20 21 21 22 22 21 21 20 19 18 18 17 17 16 15 15 16 16 17 17 18 18 19 19 19 20 20 20
17 17 17 17 17 18 20 20 20 20 19 17 17 19 20 23 26 25 22 21 19 18 19 19 18 18 19 18 19 21 23 23 22 21 18 17 18 19 19 19 20 20 20 20 20 20 20 20 21 22 23 23 22 21 21 21 21 21 21 22 22 22 22 21 20 19 18 17 17 16 16 15 16 17 17 18 18 19 20 20 21 21 20 20 20
19 18 18 18 17 19 20 20 20 20 19 18 18 18 19 22 25 25 20 18 17 17 17 17 18 19 18 18 19 22 23 22 22 22 20 20 21 22 21 21 20 20 20 20 19 20 20 21 21 22 22 22 22 21 21 21 21 21 22 22 21 22 21 21 19 18 18 17 17 17 17 17 17 18 18 19 20 20 20 21 21 20 19 19 19
20 20 19 19 19 20 20 20 21 21 20 20 20 19 20 21 24 24 19 15 15 15 16 15 17 19 18 18 20 21 20 19 19 20 21 21 22 23 22 21 20 20 19 19 19 20 20 20 21 22 22 22 21 21 21 22 22 22 22 22 21 21 21 21 19 18 18 18 18 18 18 18 18 19 19 20 20 20 20 19 19 18 18 17 18
19 20 20 21 20 21 21 21 22 23 22 21 20 20 21 22 24 23 17 14 15 16 16 15 16 17 18 19 20 20 18 16 16 18 19 19 20 22 23 21 20 19 18 19 20 20 20 20 21 22 22 21 21 21 21 22 22 22 22 22 21 21 21 21 19 18 18 18 19 19 18 19 19 19 19 20 20 19 18 17 17 16 16 16 16
19 20 21 22 23 23 23 23 23 23 23 22 21 21 21 21 23 24 19 15 15 16 16 14 15 16 17 18 19 18 17 15 16 17 17 17 18 21 23 20 18 18 19 19 20 21 21 21 21 21 22 21 21 21 21 21 21 21 21 21 21 21 21 21 20 19 19 19 19 18 18 18 18 19 19 19 18 17 16 16 16 15 15 15 15
18 19 20 22 24 25 25 24 23 23 23 23 23 22 21 21 23 23 20 17 16 16 15 13 15 15 16 17 16 16 17 16 16 16 15 16 19 21 21 19 18 19 20 19 20 21 22 21 21 21 22 22 21 21 20 20 21 21 21 21 21 21 21 21 19 19 19 18 17 18 18 18 18 18 18 17 16 15 14 14 15 15 14 13 13
16 18 19 21 23 26 27 26 24 23 22 23 22 21 20 21 22 21 20 18 18 17 14 13 14 14 15 15 15 17 17 17 16 16 14 16 19 19 19 18 19 20 20 20 21 21 22 22 21 21 22 22 21 20 19 20 20 20 20 21 21 21 21 20 19 18 17 17 17 17 17 17 17 17 16 15 14 14 14 14 14 14 13 12 12
14 16 18 19 22 25 27 27 26 24 23 22 22 21 20 20 20 19 19 19 18 17 15 13 13 13 14 14 15 16 16 16 15 15 15 16 18 18 18 18 19 20 20 20 21 22 22 22 22 22 22 21 21 20 19 19 19 19 19 20 20 21 20 19 18 18 17 17 17 16 16 16 16 15 14 14 13 14 13 13 13 12 12 11 11
13 15 15 18 21 23 26 28 28 26 24 23 22 20 19 19 18 17 17 18 18 17 15 13 12 12 14 14 15 15 15 14 14 15 16 17 18 18 19 20 20 20 20 20 22 23 23 23 22 22 22 21 21 19 18 19 19 18 19 19 20 20 20 19 18 18 17 17 17 16 15 15 14 14 13 12 13 13 13 12 11 11 11 10 9
13 14 14 16 19 21 25 28 28 27 25 24 23 22 20 19 17 15 16 16 16 15 13 11 11 11 12 14 15 15 14 13 14 15 16 18 18 17 18 19 19 19 19 20 22 23 23 23 23 22 22 21 21 19 19 19 19 19 18 18 19 19 19 19 18 18 17 17 16 15 14 13 12 12 12 12 12 12 11 10 10 9 9 9 9
12 13 14 15 17 19 23 26 29 28 26 25 24 24 22 20 17 15 14 13 13 13 11 11 11 10 11 13 14 15 14 13 14 14 15 16 15 15 15 15 17 17 18 19 21 23 23 23 23 22 21 21 21 20 20 19 19 19 18 18 19 19 19 19 18 17 17 17 15 13 13 12 11 11 11 12 12 11 10 10 9 8 8 8 8
12 13 14 15 15 17 20 24 27 28 28 26 25 25 24 21 18 18 17 14 13 12 11 10 10 10 11 12 14 14 13 14 14 14 14 15 15 15 14 15 16 17 17 18 21 23 22 22 23 22 21 21 21 21 20 20 20 19 19 18 19 19 19 18 17 16 16 16 14 13 11 10 10 10 11 12 11 11 10 9 9 8 8 7 7
11 12 14 15 15 15 17 21 25 27 28 28 26 25 24 21 19 20 19 17 16 14 12 11 11 11 11 12 13 13 13 13 13 14 14 15 16 15 14 14 16 17 18 18 20 22 22 22 23 23 22 21 20 21 20 20 20 20 19 18 18 19 18 17 17 15 14 15 14 12 10 9 10 10 10 11 11 11 10 10 8 7 7 7 7
11 12 14 16 15 15 16 18 22 25 26 28 28 26 24 21 18 18 17 18 18 16 14 13 13 13 12 13 13 12 12 12 13 13 13 13 14 13 12 14 16 17 19 20 21 23 23 22 23 23 21 20 19 19 19 20 20 20 19 18 18 18 17 17 16 14 13 14 14 11 10 9 9 9 9 10 11 11 11 10 8 7 7 7 7
13 13 14 17 16 15 15 15 19 22 23 25 27 26 25 21 18 16 16 17 18 18 15 13 13 14 13 13 13 12 12 12 12 12 12 12 12 11 11 13 15 17 18 19 21 23 22 20 21 22 20 19 18 18 18 18 18 18 18 18 17 16 15 15 15 14 13 13 13 10 9 8 8 9 10 11 11 10 10 9 8 7 6 6 5
14 15 15 16 17 17 15 14 16 19 21 22 24 25 24 22 18 17 15 15 16 17 16 14 14 15 14 14 13 13 12 12 11 11 12 11 12 11 11 13 15 17 16 17 19 20 19 18 20 21 20 19 18 18 17 17 17 18 17 17 16 15 13 14 14 14 12 12 13 10 8 8 8 9 10 10 10 9 8 7 7 6 5 4 3
15 16 17 17 18 18 17 15 14 16 18 19 21 23 23 22 19 17 15 14 14 15 15 15 15 15 14 14 13 12 12 11 10 11 11 10 11 11 11 12 14 15 15 15 17 18 19 20 21 21 21 20 20 19 18 17 18 17 16 16 15 14 13 13 14 14 12 11 12 10 8 7 7 8 9 9 9 8 7 6 5 4 2 2 3
17 15 17 18 19 19 18 16 15 15 16 17 19 20 21 21 20 18 16 14 14 13 14 15 15 15 14 14 13 12 11 11 10 11 11 10 11 11 11 12 14 15 15 15 16 18 20 21 21 21 21 21 20 20 20 19 17 16 15 15 14 14 13 13 14 13 12 10 9 8 9 8 7 8 9 9 8 7 6 4 3 2 2 2 3
21 17 17 18 18 20 20 18 17 15 16 17 17 18 19 19 19 18 17 15 14 14 14 14 15 16 14 13 13 12 12 12 12 11 12 11 11 11 10 12 14 15 15 16 16 18 19 20 20 20 20 20 19 21 20 17 15 15 14 14 14 14 13 14 14 13 12 10 8 7 7 8 8 8 8 8 7 6 5 3 2 1 2 3 3
27 22 16 16 17 19 20 20 18 17 17 16 17 18 18 18 17 17 17 16 15 14 14 14 15 15 15 14 12 13 13 14 13 11 12 13 12 12 12 12 13 14 14 14 15 16 18 20 20 20 20 20 19 20 20 17 14 13 13 14 13 13 13 14 14 13 12 10 8 7 7 8 9 8 8 7 6 7 5 3 1 1 2 3 3
32 25 16 15 16 18 20 21 19 18 18 18 18 19 18 17 16 16 16 17 16 15 14 14 15 15 15 15 13 13 13 14 14 12 12 14 13 13 13 12 12 12 12 13 13 14 17 19 20 20 20 21 19 19 20 19 15 12 12 13 13 13 14 14 13 12 11 10 10 10 8 8 8 7 8 6 6 7 6 4 2 1 1 3 3
32 28 20 15 15 17 20 20 19 19 19 19 19 19 20 19 17 16 16 17 17 15 15 14 15 15 15 15 15 13 13 13 14 13 12 13 14 13 12 12 11 10 11 12 13 14 16 18 19 19 21 22 21 19 19 19 17 14 13 13 13 14 14 13 12 10 10 10 10 11 10 9 8 7 8 7 6 6 6 5 5 2 0 2 2
29 29 26 20 16 17 19 19 20 20 20 20 20 21 21 20 19 17 17 17 17 16 15 14 14 15 15 15 15 14 13 13 13 14 13 12 13 13 11 10 10 10 11 13 14 15 16 17 18 20 21 21 21 20 19 18 17 15 14 14 14 14 12 11 11 11 10 10 10 11 11 10 9 9 9 10 8 6 5 5 5 3 1 2 2
27 27 28 26 21 19 20 19 20 21 21 21 21 21 22 22 21 19 18 18 18 17 15 14 14 15 15 15 15 15 14 13 13 13 13 12 12 12 12 11 11 11 11 13 14 16 17 17 18 21 21 20 19 19 19 18 17 15 15 15 14 13 11 10 11 11 11 11 10 11 12 11 10 9 8 8 8 6 4 4 4 2 1 2 4
27 26 28 29 26 24 21 20 20 22 22 23 23 23 23 24 23 21 20 20 20 18 16 15 14 14 16 16 15 15 15 14 13 12 12 12 11 12 12 12 13 12 11 12 14 16 17 17 19 21 20 19 19 18 18 17 15 15 15 15 14 13 12 11 10 10 11 12 12 12 12 11 10 8 7 8 8 7 6 5 5 3 1 2 4
27 26 27 28 28 27 25 22 21 22 23 24 25 25 25 25 25 23 21 21 21 20 19 17 16 15 15 16 16 16 15 14 14 12 11 11 12 12 12 13 14 13 12 12 13 15 16 16 18 20 20 19 20 20 19 17 16 16 16 15 14 14 13 13 12 11 11 13 13 13 12 12 10 8 8 9 9 7 7 6 6 3 1 2 5
28 28 28 28 29 29 27 26 25 25 26 27 27 27 27 27 26 24 23 22 22 22 22 20 18 17 16 15 17 16 15 15 14 13 12 11 11 12 12 14 14 14 13 12 12 13 15 16 17 20 20 21 22 23 22 20 18 17 16 15 15 14 13 12 12 12 12 13 13 13 12 11 9 8 8 8 7 7 6 6 5 3 2 2 5
31 30 29 28 29 30 29 29 29 28 29 30 30 30 29 29 28 27 25 24 23 24 24 23 21 19 17 15 16 17 16 16 15 14 13 12 11 12 12 12 13 14 14 13 12 13 16 17 18 20 20 21 23 24 23 21 20 18 17 16 15 14 13 12 11 12 12 12 13 13 12 11 9 9 10 8 7 6 6 5 3 3 2 2 4
Wind_Direction
247 249 252 255 256 255 254 253 253 254 254 254 254 253 254 255 257 258 259 259 259 259 257 257 257 257 258 258 258 258 258 258 258 257 255 254 254 253 252 251 252 253 254 255 256 257 258 259 260 260 260 260 258 257 255 251 249 247 248 249 251 254 257 259 260 262 264 266 267 269 272 274 277 279 282 285 288 292 295 298 300 301 302 303 304
246 246 249 250 253 254 253 255 254 255 255 255 256 256 256 256 257 259 259 260 260 260 260 258 257 256 257 257 257 257 257 257 257 257 256 255 254 253 252 251 251 251 252 254 255 256 257 258 259 259 259 259 258 256 255 253 250 248 248 249 251 253 256 257 259 261 263 265 268 270 273 276 279 281 284 288 292 295 298 299 301 302 302 303 303
240 240 243 245 248 251 253 254 254 254 255 255 256 256 256 257 257 258 260 261 261 260 261 259 259 258 257 257 257 257 257 257 257 256 256 255 254 253 252 251 250 250 251 252 253 254 255 256 257 257 258 257 256 255 253 251 250 249 249 250 252 253 254 256 258 260 263 266 269 272 275 278 281 284 288 292 295 297 299 300 301 303 304 304 304
243 242 242 244 244 246 251 252 254 255 256 257 256 257 256 257 257 258 259 260 261 261 261 260 259 259 258 257 257 257 257 257 257 257 256 255 254 253 253 253 251 250 251 251 250 251 252 254 254 254 255 255 255 253 250 250 250 250 251 252 253 253 254 256 258 261 264 266 269 272 275 280 283 288 291 293 295 297 299 300 302 304 305 305 305
246 244 244 244 245 245 251 253 254 256 258 260 259 259 258 258 258 258 258 258 260 260 261 260 260 259 258 257 256 256 256 257 258 258 257 256 255 254 254 254 252 250 250 249 249 249 250 252 252 252 252 253 252 251 249 248 248 250 251 253 254 253 255 257 258 261 263 266 269 273 277 282 286 289 292 293 294 295 296 298 300 302 303 304 305
249 245 245 243 245 246 252 259 259 259 260 263 263 261 260 258 258 258 258 257 258 259 260 260 260 259 258 257 256 255 255 256 257 259 259 258 256 255 254 253 252 250 250 249 249 248 249 250 250 250 250 251 252 251 249 249 248 248 250 252 253 254 255 255 256 258 261 265 268 274 279 283 287 290 290 291 292 293 294 295 298 300 301 303 304
253 246 246 244 245 248 253 261 263 264 264 267 268 267 265 262 259 259 259 259 259 259 260 260 260 258 257 257 256 255 254 255 256 257 258 259 257 255 254 253 251 250 250 249 248 249 250 251 250 250 250 251 252 251 250 250 248 248 250 251 252 253 253 254 256 258 260 264 270 275 279 284 287 288 288 289 290 292 293 295 297 299 300 301 302
256 250 249 250 251 254 257 261 265 266 266 267 269 270 269 266 263 260 260 260 260 261 260 260 259 257 256 256 256 255 256 256 256 257 258 258 258 257 255 253 252 252 252 251 250 250 251 251 251 251 251 251 250 249 248 246 246 247 248 250 252 252 253 255 256 259 262 267 272 276 280 284 287 286 286 287 288 292 294 295 296 296 298 300 301
264 262 259 260 261 262 264 264 266 266 266 266 267 269 269 268 265 262 260 260 261 261 261 260 258 256 256 256 256 256 256 256 257 258 259 259 259 259 257 256 255 254 252 252 251 250 250 251 250 250 250 249 248 247 245 243 245 246 247 250 251 253 254 256 258 261 266 271 274 276 279 282 284 285 286 286 286 289 292 293 295 297 300 301 301
276 280 279 276 273 270 270 267 267 266 265 266 266 266 266 266 264 262 260 259 260 260 259 257 256 255 254 255 255 256 256 256 256 257 258 259 260 260 259 258 256 254 252 250 249 249 249 249 248 248 248 248 248 247 245 245 247 248 249 251 253 255 257 260 263 266 270 272 272 274 277 278 280 283 284 285 284 284 285 287 291 296 300 302 302
287 291 290 287 282 276 272 269 268 268 268 267 265 264 264 263 262 260 259 258 258 257 256 255 254 254 253 253 253 253 253 253 253 254 256 256 257 258 259 258 255 253 250 249 248 248 248 248 247 247 247 248 249 249 249 250 251 252 252 254 256 259 262 265 268 269 270 270 271 273 274 276 278 280 280 280 281 281 282 283 287 290 295 299 301
298 299 296 292 285 280 275 271 270 270 270 268 266 265 264 262 260 259 257 257 256 255 254 253 252 252 252 251 250 250 249 249 251 252 253 254 255 256 257 257 255 252 250 249 248 248 248 247 247 247 247 248 250 251 253 254 256 257 257 258 260 262 265 267 269 268 267 267 269 272 273 275 277 278 277 277 278 279 282 284 288 291 295 298 300
304 304 300 296 290 286 280 273 271 269 268 267 266 265 264 264 262 260 258 256 255 254 252 251 250 249 248 247 247 246 246 247 248 250 251 252 253 254 255 256 256 254 252 250 250 249 249 249 248 248 248 249 250 252 254 256 259 260 260 261 261 263 267 267 266 265 265 266 267 268 270 273 275 276 276 277 279 281 284 288 291 295 298 299 299
308 306 299 296 293 289 283 277 271 268 266 264 263 263 263 263 263 262 260 258 256 255 253 251 249 246 244 243 243 243 243 244 246 247 249 250 251 252 253 254 255 255 254 253 251 250 250 250 251 251 251 251 252 253 255 258 260 262 262 262 262 263 265 263 264 264 264 265 266 267 269 272 275 277 279 281 285 289 292 294 296 297 297 297 296
306 305 301 297 294 290 284 281 275 270 267 264 262 261 260 260 261 261 259 259 257 256 255 253 250 246 245 243 242 243 243 243 244 246 248 249 249 251 252 253 253 253 254 253 252 251 252 252 252 253 253 254 253 255 256 258 260 261 262 262 262 263 262 259 261 263 264 265 266 269 272 276 281 284 286 289 292 294 294 295 295 295 295 294 295
300 299 299 296 292 289 284 282 277 271 267 264 263 260 259 259 260 260 259 258 256 256 255 253 250 246 245 244 244 245 246 245 245 247 248 250 249 250 251 253 254 252 253 253 252 252 253 253 253 254 255 255 255 256 256 258 259 259 261 261 262 262 259 257 259 261 261 265 267 271 277 281 286 290 293 295 297 297 295 294 293 293 293 294 295
306 301 294 291 288 286 283 279 275 271 268 264 262 262 262 263 263 263 261 259 258 257 257 255 252 248 247 246 246 247 249 249 248 248 249 251 251 252 252 253 253 252 252 252 251 251 252 252 252 254 255 256 256 256 256 257 258 259 259 259 259 257 255 255 258 260 261 266 271 275 282 288 293 298 301 301 299 295 292 290 290 290 290 290 290
315 310 302 292 285 283 280 277 274 269 265 263 264 265 266 266 264 260 258 260 262 263 261 260 257 253 253 251 250 250 251 252 253 254 253 254 253 253 254 255 253 251 252 251 250 249 250 250 250 252 253 255 255 256 257 257 257 257 257 255 254 253 253 255 257 260 263 267 275 282 288 295 301 304 303 299 293 289 288 287 287 286 286 285 285
318 316 314 304 292 284 278 274 271 266 265 268 270 268 266 264 259 258 261 264 265 266 264 262 260 257 257 255 253 252 251 251 254 257 257 258 257 255 256 257 255 252 251 249 248 248 249 249 249 250 252 254 255 255 256 257 256 255 255 253 250 250 252 256 258 263 269 274 282 289 294 298 300 299 295 290 287 286 286 286 285 284 284 284 284
321 319 319 314 304 291 281 274 271 271 276 278 277 271 268 265 263 265 270 271 268 268 267 265 264 261 260 257 255 253 252 251 252 256 257 259 259 256 256 255 254 251 249 247 247 247 248 249 249 250 252 253 254 256 256 256 256 255 253 251 250 251 253 257 262 269 276 281 288 292 294 295 292 290 288 287 287 287 286 285 284 283 283 285 286
328 325 322 317 311 301 290 281 277 282 285 281 278 276 275 272 271 274 275 273 272 273 272 268 266 265 264 262 260 258 256 254 252 252 252 253 254 254 252 252 252 250 248 247 246 245 246 248 249 250 251 253 254 255 256 256 256 255 253 252 253 254 256 260 266 272 276 280 285 288 290 287 285 285 286 288 288 287 286 284 284 284 285 287 288
335 331 327 323 317 308 299 292 289 292 291 284 282 280 279 277 276 279 278 276 275 276 274 271 270 268 267 265 264 264 261 258 254 251 249 248 248 247 246 246 248 248 247 246 245 243 243 246 248 249 250 251 254 255 255 255 255 254 254 255 256 259 261 265 269 273 277 280 282 285 285 283 282 285 288 289 289 288 287 286 286 287 288 289 290
341 337 334 330 324 314 306 304 302 302 300 295 290 285 282 280 280 280 279 279 280 279 278 275 274 269 267 266 265 266 265 261 257 255 251 247 246 244 243 242 242 243 243 243 242 241 241 243 246 248 249 250 252 254 255 255 255 255 256 257 258 261 265 269 272 274 277 280 282 285 285 284 284 287 289 291 291 291 290 289 289 289 290 291 291
346 342 339 334 329 320 310 308 311 310 309 306 298 291 286 282 280 280 282 286 287 286 283 280 279 274 269 268 268 269 268 265 261 257 252 248 248 245 242 240 239 238 239 239 239 238 238 240 243 246 248 249 250 252 254 254 255 255 256 258 259 263 267 271 274 277 278 280 282 285 287 288 288 290 292 293 293 293 292 291 290 290 292 292 292
350 346 341 337 332 325 314 309 314 316 316 315 307 299 290 282 279 280 285 289 290 290 288 284 282 277 274 275 274 272 269 266 261 256 252 249 248 246 243 242 241 238 236 236 236 236 236 238 240 244 247 248 250 251 252 254 254 255 256 258 261 265 269 272 275 278 279 281 283 286 289 290 292 293 294 294 294 293 292 292 292 293 294 294 292
351 351 344 337 333 327 320 314 319 323 323 319 311 305 296 287 282 281 282 285 288 287 286 286 283 279 278 276 275 274 269 263 259 253 250 249 248 250 247 244 244 243 241 240 238 236 235 237 238 241 245 247 249 250 251 252 254 255 256 259 262 266 270 274 276 278 279 282 285 288 291 292 292 293 293 294 294 293 293 293 294 295 295 294 292
352 353 349 340 334 328 323 320 325 329 326 319 312 308 300 293 287 285 285 284 284 283 284 288 285 282 278 272 272 274 266 261 262 254 251 252 253 252 248 246 248 250 250 248 246 243 238 237 238 240 243 246 247 249 250 252 253 254 257 261 264 267 271 275 277 278 280 284 287 291 292 292 291 291 293 294 294 294 295 296 297 297 296 293 292
352 352 350 344 337 330 326 323 328 331 327 322 317 312 303 296 291 288 288 286 281 279 281 282 279 277 275 271 271 270 265 266 270 261 254 256 257 251 246 249 253 251 251 249 248 248 244 240 239 238 241 244 246 248 250 252 254 256 259 262 265 268 272 275 278 280 283 287 291 294 293 291 292 293 295 295 295 296 298 300 300 299 297 294 292
350 349 348 345 339 334 329 328 330 331 329 326 322 316 307 299 294 290 290 286 280 278 279 277 275 275 274 272 270 267 269 274 274 268 259 255 256 251 248 251 249 245 247 246 246 248 248 243 240 238 240 243 245 247 249 252 254 257 260 262 265 269 273 277 281 285 288 291 293 295 293 291 293 296 297 296 296 298 300 303 303 303 300 296 293
346 347 345 343 339 335 331 331 332 331 329 327 323 319 312 303 296 293 293 289 283 281 282 280 279 279 278 278 275 273 275 276 274 272 267 259 259 258 256 255 245 240 244 246 244 245 247 244 241 239 238 240 242 245 249 253 255 257 260 264 268 272 276 282 285 288 291 293 294 295 295 294 295 296 297 297 298 300 303 306 307 306 303 298 294
344 346 344 342 339 335 331 330 332 330 329 327 325 322 315 307 301 297 296 293 290 289 292 289 284 283 282 281 279 278 277 276 275 274 273 266 263 261 257 250 243 242 244 245 244 243 245 245 243 240 238 238 240 243 247 252 255 258 262 267 272 276 280 285 287 290 292 293 294 296 296 296 297 296 297 299 302 305 306 307 307 306 304 301 298
340 342 343 342 339 336 332 329 330 329 328 327 325 322 316 309 305 303 300 296 293 295 297 291 283 278 278 278 278 277 274 272 271 272 272 269 266 262 255 247 242 243 244 245 244 243 242 243 243 241 240 240 240 241 243 249 254 258 263 268 272 277 281 284 286 290 292 293 294 294 296 297 296 295 298 303 306 308 308 307 307 306 305 303 300
331 335 338 340 339 338 335 330 329 329 328 327 325 321 316 313 313 311 305 296 294 297 296 290 280 270 268 271 273 273 273 271 267 265 266 268 265 257 252 244 238 238 240 244 243 239 238 239 240 240 239 239 239 239 240 246 253 257 262 266 270 275 278 283 286 290 292 292 292 293 296 297 295 295 297 303 306 308 309 309 308 306 306 305 304
323 328 331 336 337 338 338 332 328 328 328 327 324 320 317 321 325 317 311 306 304 303 299 297 290 277 270 268 267 267 270 271 269 264 262 266 262 252 249 242 234 233 236 241 238 233 236 237 239 239 237 238 238 238 240 246 253 257 260 263 268 273 277 283 288 292 293 291 291 292 292 292 292 292 293 300 306 307 309 311 310 308 307 307 305
316 322 325 330 333 335 339 335 329 327 327 327 324 321 320 328 332 325 326 327 320 315 311 308 300 290 282 272 270 270 269 270 271 270 264 263 260 254 253 245 237 236 237 238 232 232 237 236 237 238 236 236 237 237 240 245 251 254 257 260 266 272 277 283 289 292 292 291 292 290 288 291 293 291 291 297 305 308 310 309 308 309 310 311 306
302 313 317 322 327 329 335 334 330 326 326 326 323 321 322 332 338 333 334 332 325 321 318 314 306 300 291 280 278 276 273 272 274 274 269 262 260 258 253 248 244 241 240 237 232 235 240 237 237 237 234 235 235 237 240 243 248 251 255 259 265 270 276 283 288 291 291 290 291 289 287 288 288 289 291 297 304 309 310 306 306 309 312 313 307
294 303 309 314 319 321 327 331 328 326 326 324 323 322 323 334 342 338 336 331 326 324 323 318 311 306 299 290 286 282 278 277 277 277 273 266 265 264 256 250 247 245 243 240 238 238 240 237 236 236 234 235 234 235 238 240 246 250 253 256 261 266 275 283 288 291 291 289 288 287 287 284 284 289 293 297 304 308 307 305 308 313 314 312 305
291 295 302 307 311 313 317 324 325 325 325 323 322 323 323 330 339 340 339 332 326 324 328 327 314 305 299 294 290 287 282 277 275 275 274 272 273 273 262 252 248 247 246 243 239 234 235 238 241 242 240 237 235 234 236 240 245 249 251 254 258 265 274 282 289 292 292 288 285 284 286 288 288 288 292 298 304 307 308 310 315 319 319 314 309
289 288 297 303 304 306 307 313 319 319 321 321 321 323 324 327 333 340 343 339 331 326 329 333 322 308 300 296 293 291 285 279 278 276 273 271 274 274 265 256 250 248 246 240 233 229 235 237 237 244 246 242 240 238 238 240 242 246 247 251 256 264 274 281 289 292 290 286 284 285 283 284 288 290 293 300 304 306 309 315 322 327 328 326 332
290 283 291 300 300 301 300 301 308 310 313 315 316 320 325 328 331 335 341 341 336 331 330 335 333 320 307 300 296 293 288 285 285 280 274 267 268 270 264 258 251 249 248 239 233 235 243 240 231 233 239 242 244 242 240 238 239 243 245 248 255 263 272 278 284 285 282 278 279 285 286 282 287 293 296 299 302 304 308 317 327 336 355 11 6
295 286 284 294 295 296 296 293 295 299 302 305 307 312 318 325 328 329 333 336 335 335 334 336 339 335 321 307 300 295 291 289 286 279 274 263 259 259 254 251 247 246 249 244 241 243 245 242 234 232 234 235 238 240 240 238 239 241 244 249 257 265 270 274 277 276 274 269 267 280 290 288 284 287 294 299 301 299 302 313 331 358 47 64 51
299 298 283 287 291 291 291 286 286 287 290 294 298 302 309 317 323 325 325 325 327 331 332 334 338 340 335 320 307 300 296 293 287 279 272 261 252 251 250 248 244 243 245 243 244 244 242 239 236 239 238 231 230 236 238 238 238 237 244 252 258 266 270 271 274 275 274 269 266 276 282 281 280 283 289 292 295 292 291 300 314 74 104 99 77
291 291 283 282 284 285 284 282 280 279 281 284 288 293 299 307 314 319 317 315 317 322 326 330 332 338 340 331 317 307 301 296 294 289 277 267 257 253 254 251 245 241 238 238 238 239 236 232 233 241 239 230 232 238 236 235 237 236 242 250 257 264 267 269 272 277 279 278 280 280 270 264 266 275 281 284 291 284 270 267 265 167 140 113 66
284 283 282 282 281 278 278 277 274 273 276 277 280 285 290 297 304 308 308 305 307 312 319 326 329 331 334 333 328 317 308 301 302 299 284 273 266 261 259 254 248 241 234 232 230 228 226 226 232 238 233 226 229 234 233 232 234 238 245 251 256 260 262 265 270 274 281 285 286 284 273 260 261 272 277 285 299 289 273 250 236 278 100 104 64
287 287 285 283 279 276 274 273 269 268 270 272 275 279 284 289 294 299 299 297 298 303 311 320 327 327 325 326 327 326 318 308 304 301 289 276 267 265 265 261 253 242 233 230 226 223 223 227 234 231 223 224 226 225 227 229 230 237 247 252 253 253 255 259 266 270 275 278 279 281 274 265 268 271 268 275 287 288 284 254 224 234 16 107 79
296 296 292 287 280 277 275 272 267 264 264 268 271 274 278 282 286 290 291 290 291 295 302 312 320 323 319 315 318 324 323 315 307 302 292 278 264 259 260 261 258 248 240 238 234 231 230 230 229 222 217 222 222 217 221 227 228 233 242 247 248 248 250 256 262 267 271 269 270 273 268 262 265 267 275 288 288 279 280 262 232 210 140 124 128
298 298 295 288 282 277 275 273 267 263 262 263 266 270 273 277 279 282 284 285 286 289 294 302 310 318 320 312 308 313 320 319 313 306 298 286 269 260 257 253 249 246 243 243 242 238 234 229 225 221 218 220 217 212 216 223 226 232 240 245 244 244 250 256 259 263 268 268 262 263 264 262 262 264 278 292 293 291 283 262 249 232 127 139 145
294 294 294 288 282 276 273 275 271 266 264 262 264 266 268 271 274 277 280 281 283 285 288 292 298 308 319 317 305 301 309 317 318 314 304 294 281 269 262 254 247 242 238 239 243 242 237 229 224 224 220 219 220 218 218 220 226 235 240 240 241 245 250 251 253 259 267 268 259 256 261 264 265 268 274 272 272 280 271 245 244 246 181 167 162
289 289 291 288 283 278 275 277 276 270 266 263 262 264 266 267 270 272 276 278 281 282 282 285 289 295 310 318 310 298 297 306 314 317 311 299 289 280 270 260 253 248 242 237 239 239 234 227 224 224 222 219 220 226 228 225 228 236 237 237 242 248 250 251 253 255 260 263 259 256 258 261 264 265 266 268 265 264 263 252 249 250 228 184 160
288 285 286 287 284 282 280 278 277 273 268 264 260 261 263 266 267 269 272 275 277 279 279 281 283 286 295 309 313 303 291 292 302 310 312 305 294 285 276 264 255 253 250 244 239 232 223 221 222 224 225 224 223 228 232 230 229 233 235 238 244 247 248 251 253 253 252 254 254 254 256 256 259 257 257 262 256 253 256 251 245 241 228 172 149
287 284 284 285 283 282 278 272 271 270 268 266 262 259 260 263 265 266 267 270 273 275 277 277 279 281 285 295 307 306 293 283 287 297 304 305 297 288 279 267 256 254 253 248 243 233 223 220 222 224 225 226 226 226 228 229 228 229 233 238 243 245 245 244 246 250 251 250 250 252 255 255 255 257 259 256 244 242 247 238 226 223 215 173 156
Height
5829 5830 5831 5832 5833 5834 5835 5835 5836 5836 5837 5838 5839 5839 5840 5841 5841 5842 5842 5843 5843 5844 5844 5845 5845 5845 5846 5846 5847 5848 5848 5849 5850 5850 5851 5851 5851 5851 5852 5852 5852 5852 5852 5852 5852 5852 5852 5853 5853 5853 5853 5854 5853 5853 5853 5853 5853 5853 5853 5853 5853 5853 5853 5853 5853 5852 5852 5852 5852 5852 5852 5852 5852 5851 5851 5850 5850 5849 5849 5848 5848 5847 5846 5846 5845
5828 5829 5830 5831 5832 5833 5834 5834 5835 5835 5836 5836 5837 5838 5839 5839 5840 5840 5840 5841 5841 5842 5842 5843 5843 5844 5844 5845 5845 5846 5846 5847 5848 5848 5849 5849 5850 5850 5850 5851 5851 5851 5851 5851 5851 5851 5851 5852 5852 5852 5852 5852 5852 5852 5852 5852 5852 5852 5852 5852 5852 5852 5852 5852 5852 5852 5851 5851 5851 5851 5851 5851 5851 5850 5850 5850 5849 5849 5848 5847 5847 5846 5845 5845 5844
5826 5827 5829 5830 5831 5832 5832 5833 5834 5834 5834 5835 5835 5836 5837 5837 5838 5838 5839 5839 5840 5840 5840 5841 5841 5842 5842 5843 5843 5844 5844 5845 5846 5847 5847 5848 5848 5848 5849 5849 5849 5849 5850 5850 5850 5850 5850 5851 5851 5851 5851 5851 5851 5851 5851 5851 5851 5851 5850 5850 5851 5851 5850 5851 5851 5851 5850 5850 5850 5850 5850 5850 5850 5849 5849 5849 5848 5848 5847 5846 5846 5845 5844 5844 5843
5826 5827 5828 5829 5830 5831 5831 5832 5832 5833 5833 5833 5834 5834 5835 5836 5836 5837 5837 5837 5838 5838 5838 5839 5839 5840 5841 5841 5842 5842 5843 5843 5844 5845 5846 5846 5846 5847 5847 5848 5848 5848 5848 5849 5849 5849 5849 5849 5850 5850 5850 5850 5850 5850 5850 5850 5850 5849 5849 5849 5850 5850 5849 5850 5850 5850 5850 5850 5850 5849 5849 5849 5849 5848 5848 5847 5847 5846 5846 5845 5845 5844 5843 5843 5842
5826 5827 5827 5828 5829 5830 5830 5830 5831 5831 5831 5832 5832 5833 5833 5833 5834 5834 5835 5835 5836 5836 5837 5837 5837 5838 5839 5839 5840 5840 5841 5841 5842 5843 5844 5844 5845 5845 5845 5846 5846 5846 5847 5847 5847 5848 5848 5848 5849 5849 5849 5849 5849 5849 5849 5849 5849 5848 5848 5849 5849 5849 5849 5849 5849 5849 5849 5849 5849 5848 5848 5848 5848 5847 5847 5846 5846 5845 5845 5844 5844 5843 5843 5842 5841
5826 5826 5827 5827 5828 5829 5829 5829 5830 5830 5830 5830 5831 5831 5831 5831 5832 5832 5833 5833 5834 5834 5835 5835 5836 5836 5837 5837 5838 5839 5839 5840 5841 5841 5842 5842 5843 5843 5843 5844 5844 5845 5846 5846 5846 5847 5847 5847 5848 5848 5848 5848 5848 5848 5848 5848 5847 5847 5847 5848 5848 5848 5848 5848 5848 5848 5848 5848 5848 5848 5847 5847 5847 5846 5845 5845 5844 5844 5844 5843 5843 5843 5842 5841 5840
5824 5825 5825 5825 5827 5828 5828 5828 5829 5829 5829 5829 5829 5829 5829 5829 5830 5830 5831 5831 5832 5832 5833 5833 5834 5834 5835 5836 5836 5837 5838 5838 5839 5839 5840 5840 5841 5841 5842 5842 5843 5843 5844 5844 5845 5846 5846 5846 5847 5847 5847 5847 5847 5847 5847 5847 5846 5846 5846 5847 5847 5847 5847 5847 5847 5847 5847 5847 5847 5847 5846 5846 5846 5845 5844 5844 5843 5843 5843 5842 5842 5842 5841 5840 5840
5822 5823 5823 5824 5825 5826 5827 5827 5827 5827 5828 5828 5828 5828 5828 5828 5828 5829 5829 5830 5830 5831 5831 5831 5832 5832 5833 5834 5834 5835 5836 5836 5837 5837 5837 5838 5838 5839 5840 5841 5841 5842 5842 5843 5843 5844 5844 5845 5845 5846 5846 5846 5846 5846 5846 5846 5845 5845 5846 5846 5846 5846 5846 5846 5846 5846 5846 5846 5846 5846 5845 5845 5845 5844 5843 5843 5842 5842 5842 5841 5841 5840 5840 5839 5839
5821 5822 5822 5823 5824 5825 5825 5826 5826 5826 5826 5826 5826 5826 5826 5826 5827 5827 5828 5828 5828 5829 5829 5829 5830 5830 5831 5832 5833 5833 5834 5834 5834 5835 5835 5835 5836 5837 5838 5839 5840 5840 5841 5841 5841 5842 5843 5843 5844 5844 5845 5845 5845 5845 5845 5845 5844 5844 5845 5845 5845 5845 5845 5846 5846 5846 5846 5845 5845 5844 5844 5844 5843 5843 5842 5842 5842 5841 5841 5840 5840 5839 5839 5838 5838
5821 5821 5822 5822 5822 5823 5824 5824 5824 5824 5824 5824 5825 5825 5825 5825 5825 5825 5826 5826 5827 5827 5827 5827 5828 5829 5830 5830 5831 5831 5832 5832 5832 5832 5833 5833 5834 5835 5836 5837 5838 5839 5839 5839 5840 5841 5841 5842 5843 5843 5844 5844 5844 5844 5844 5844 5843 5844 5844 5844 5844 5844 5845 5845 5844 5845 5844 5844 5843 5843 5843 5842 5842 5842 5842 5841 5841 5840 5840 5839 5838 5838 5838 5837 5837
5820 5821 5821 5821 5821 5821 5822 5822 5822 5823 5823 5823 5823 5823 5823 5823 5823 5824 5824 5824 5825 5825 5825 5826 5826 5827 5828 5828 5829 5829 5830 5829 5829 5830 5831 5832 5832 5833 5834 5835 5836 5837 5837 5837 5838 5839 5839 5840 5841 5842 5842 5843 5843 5843 5843 5843 5843 5843 5843 5843 5843 5843 5843 5843 5843 5843 5843 5842 5842 5842 5841 5841 5841 5841 5841 5840 5840 5839 5839 5838 5837 5837 5836 5836 5836
5819 5820 5819 5820 5820 5820 5821 5821 5821 5821 5822 5822 5822 5822 5822 5822 5822 5822 5822 5822 5822 5823 5823 5824 5824 5825 5826 5826 5827 5827 5827 5827 5827 5828 5829 5830 5830 5831 5832 5833 5834 5835 5835 5836 5836 5837 5837 5838 5839 5840 5841 5841 5841 5842 5842 5842 5842 5842 5843 5843 5842 5842 5842 5842 5842 5841 5841 5841 5841 5840 5840 5840 5840 5840 5839 5839 5839 5838 5838 5837 5837 5836 5835 5835 5835
5818 5819 5819 5819 5819 5819 5820 5820 5820 5820 5820 5820 5820 5820 5820 5820 5820 5820 5820 5820 5820 5821 5821 5822 5822 5823 5824 5824 5824 5824 5824 5825 5826 5827 5827 5828 5829 5829 5830 5831 5832 5833 5834 5834 5835 5835 5836 5836 5837 5838 5839 5839 5840 5840 5840 5841 5841 5841 5842 5841 5841 5841 5841 5841 5840 5840 5840 5840 5840 5839 5839 5839 5839 5839 5838 5838 5838 5837 5837 5836 5835 5835 5834 5834 5834
5817 5818 5818 5818 5818 5818 5818 5819 5819 5818 5818 5818 5818 5818 5818 5818 5818 5818 5818 5818 5818 5818 5819 5819 5820 5821 5821 5822 5822 5822 5822 5823 5824 5825 5826 5827 5827 5828 5829 5830 5831 5832 5832 5833 5833 5834 5834 5835 5835 5836 5837 5838 5838 5839 5839 5839 5840 5840 5840 5840 5840 5840 5839 5839 5839 5839 5839 5839 5839 5838 5838 5838 5838 5838 5837 5837 5837 5836 5836 5835 5834 5834 5834 5833 5833
5816 5817 5818 5817 5817 5817 5817 5817 5817 5817 5816 5816 5816 5816 5816 5816 5817 5816 5816 5816 5816 5816 5817 5818 5818 5819 5819 5819 5819 5820 5821 5822 5823 5824 5824 5825 5825 5826 5827 5828 5829 5830 5831 5831 5832 5832 5833 5833 5834 5835 5835 5836 5837 5837 5838 5838 5838 5838 5839 5839 5838 5839 5838 5838 5839 5839 5839 5838 5838 5838 5837 5837 5837 5837 5837 5836 5836 5835 5835 5834 5834 5833 5833 5833 5833
5815 5816 5816 5816 5816 5816 5816 5816 5816 5815 5815 5814 5814 5814 5815 5815 5815 5815 5814 5814 5814 5814 5815 5816 5817 5816 5816 5817 5817 5818 5820 5821 5822 5822 5823 5823 5824 5825 5825 5826 5828 5829 5829 5830 5831 5831 5831 5832 5832 5833 5834 5835 5836 5836 5836 5837 5837 5837 5837 5837 5837 5837 5837 5837 5838 5838 5838 5837 5837 5837 5836 5836 5836 5836 5836 5836 5835 5835 5834 5834 5833 5833 5832 5832 5832
5814 5814 5815 5815 5815 5815 5815 5815 5814 5814 5813 5813 5813 5813 5814 5815 5814 5813 5812 5812 5813 5814 5815 5816 5816 5815 5815 5815 5816 5817 5819 5820 5821 5821 5821 5822 5823 5823 5824 5825 5826 5827 5828 5829 5829 5829 5830 5830 5831 5831 5832 5833 5834 5835 5835 5835 5835 5835 5835 5835 5835 5836 5836 5836 5837 5836 5836 5836 5836 5836 5836 5836 5836 5836 5835 5835 5834 5834 5833 5833 5832 5832 5831 5831 5831
5812 5813 5814 5814 5813 5813 5813 5812 5812 5811 5811 5811 5813 5814 5814 5813 5812 5810 5809 5810 5812 5813 5815 5817 5817 5816 5815 5815 5816 5817 5818 5818 5819 5820 5820 5821 5821 5822 5822 5823 5824 5825 5826 5827 5827 5828 5828 5828 5829 5830 5831 5831 5832 5833 5833 5833 5833 5833 5833 5834 5834 5834 5835 5835 5836 5835 5835 5835 5835 5835 5835 5835 5835 5835 5834 5834 5833 5833 5832 5831 5831 5831 5830 5830 5830
5812 5812 5812 5812 5812 5812 5811 5810 5809 5808 5809 5811 5812 5812 5812 5811 5808 5806 5807 5809 5811 5812 5814 5815 5816 5815 5814 5815 5815 5815 5816 5817 5817 5818 5819 5820 5820 5820 5821 5822 5822 5823 5824 5825 5826 5826 5826 5827 5827 5828 5829 5830 5830 5831 5831 5831 5831 5832 5832 5832 5833 5833 5834 5834 5834 5834 5834 5834 5834 5834 5834 5834 5834 5834 5833 5832 5832 5831 5831 5830 5830 5830 5829 5829 5829
5811 5811 5811 5811 5811 5810 5809 5807 5806 5807 5809 5811 5811 5811 5810 5808 5805 5805 5808 5810 5810 5811 5812 5813 5814 5813 5813 5813 5813 5814 5814 5815 5816 5816 5817 5818 5818 5819 5819 5820 5820 5821 5822 5823 5824 5824 5825 5825 5826 5827 5827 5828 5828 5829 5829 5830 5830 5830 5830 5831 5831 5832 5833 5833 5833 5833 5833 5834 5834 5834 5833 5833 5833 5832 5831 5831 5830 5830 5829 5829 5829 5828 5828 5828 5827
5811 5810 5810 5810 5810 5809 5808 5806 5805 5807 5809 5810 5810 5809 5808 5806 5804 5804 5807 5808 5809 5810 5810 5811 5811 5812 5812 5812 5812 5813 5813 5814 5814 5814 5815 5816 5816 5817 5817 5818 5818 5819 5819 5820 5821 5822 5823 5824 5824 5825 5826 5826 5827 5827 5828 5828 5829 5829 5829 5830 5830 5831 5831 5832 5833 5833 5833 5833 5833 5832 5832 5832 5831 5830 5830 5829 5829 5828 5828 5827 5827 5827 5827 5826 5826
5811 5810 5809 5809 5809 5808 5807 5805 5805 5806 5808 5809 5809 5808 5807 5805 5803 5803 5805 5806 5807 5808 5809 5809 5809 5810 5811 5811 5811 5811 5812 5811 5811 5812 5813 5814 5814 5814 5814 5815 5815 5816 5817 5818 5819 5820 5821 5822 5823 5823 5824 5825 5825 5826 5826 5827 5827 5828 5828 5829 5829 5829 5830 5831 5832 5832 5831 5831 5831 5831 5831 5830 5830 5829 5828 5828 5827 5827 5826 5826 5826 5825 5825 5825 5824
5812 5811 5809 5809 5808 5807 5805 5805 5805 5805 5806 5808 5807 5806 5805 5803 5801 5801 5803 5804 5806 5807 5807 5807 5808 5808 5809 5809 5809 5809 5809 5809 5809 5810 5811 5812 5812 5812 5812 5812 5812 5813 5814 5815 5816 5818 5819 5820 5821 5821 5822 5823 5823 5824 5825 5826 5826 5827 5827 5828 5828 5828 5828 5829 5830 5831 5830 5830 5830 5830 5829 5829 5828 5827 5827 5826 5826 5825 5825 5824 5824 5824 5823 5823 5822
5812 5811 5810 5808 5807 5806 5804 5804 5805 5804 5805 5806 5806 5805 5803 5801 5799 5799 5801 5804 5805 5805 5805 5806 5806 5806 5806 5806 5806 5806 5806 5806 5807 5808 5808 5809 5809 5809 5809 5809 5809 5810 5811 5812 5813 5815 5817 5818 5819 5819 5820 5821 5822 5823 5823 5824 5825 5825 5826 5826 5827 5827 5827 5828 5829 5829 5829 5829 5829 5828 5828 5827 5827 5826 5825 5825 5824 5824 5823 5823 5822 5822 5821 5821 5820
5813 5812 5810 5808 5807 5805 5804 5804 5804 5804 5804 5804 5804 5803 5802 5800 5797 5798 5801 5803 5803 5803 5803 5804 5804 5804 5804 5804 5803 5804 5804 5803 5804 5804 5805 5806 5806 5806 5806 5807 5807 5807 5808 5809 5811 5813 5814 5816 5817 5817 5818 5819 5820 5821 5821 5822 5823 5824 5824 5825 5825 5825 5826 5826 5827 5828 5828 5828 5828 5827 5827 5826 5825 5825 5824 5823 5822 5822 5822 5821 5820 5820 5820 5819 5818
5813 5812 5810 5808 5806 5805 5803 5803 5804 5803 5804 5804 5802 5801 5800 5798 5795 5796 5800 5801 5801 5801 5800 5801 5802 5802 5801 5801 5801 5801 5801 5801 5801 5801 5801 5802 5802 5804 5805 5805 5805 5806 5807 5809 5810 5811 5812 5814 5815 5815 5816 5817 5818 5819 5820 5821 5821 5822 5823 5823 5824 5824 5825 5825 5826 5826 5826 5827 5827 5826 5826 5825 5824 5823 5822 5821 5821 5820 5820 5819 5818 5818 5818 5817 5816
5812 5811 5810 5808 5806 5804 5802 5803 5803 5803 5803 5803 5802 5801 5799 5797 5794 5794 5797 5799 5798 5798 5797 5799 5800 5799 5799 5798 5798 5798 5798 5798 5799 5799 5799 5799 5801 5804 5805 5804 5804 5806 5808 5808 5809 5810 5810 5811 5812 5813 5814 5815 5816 5817 5818 5819 5820 5821 5822 5822 5822 5823 5823 5824 5825 5825 5825 5825 5825 5825 5824 5823 5822 5821 5821 5820 5820 5819 5818 5818 5817 5816 5816 5815 5814
5812 5810 5810 5808 5806 5804 5802 5802 5803 5803 5802 5801 5801 5800 5798 5796 5793 5792 5795 5796 5796 5795 5796 5797 5798 5797 5796 5796 5795 5795 5796 5796 5797 5797 5798 5799 5800 5802 5802 5802 5803 5805 5806 5807 5807 5808 5809 5809 5810 5811 5812 5813 5814 5816 5817 5818 5819 5820 5821 5821 5821 5822 5822 5823 5824 5824 5824 5824 5824 5823 5822 5821 5820 5820 5819 5819 5818 5818 5817 5816 5816 5815 5814 5814 5813
5812 5811 5809 5808 5806 5804 5802 5802 5803 5803 5801 5800 5799 5798 5797 5795 5793 5792 5793 5795 5795 5795 5795 5796 5796 5795 5794 5794 5794 5793 5794 5795 5795 5796 5796 5796 5797 5798 5799 5800 5801 5802 5803 5804 5805 5806 5807 5807 5808 5809 5810 5811 5812 5814 5815 5816 5817 5818 5819 5820 5820 5821 5821 5822 5823 5823 5823 5823 5822 5821 5821 5820 5819 5818 5818 5817 5817 5816 5816 5815 5814 5814 5813 5812 5812
5812 5811 5809 5808 5806 5804 5802 5802 5803 5803 5801 5799 5798 5797 5795 5794 5794 5793 5793 5794 5794 5795 5795 5795 5794 5793 5792 5792 5792 5792 5792 5793 5794 5794 5794 5794 5794 5796 5797 5797 5798 5799 5800 5802 5802 5803 5804 5805 5806 5807 5808 5809 5810 5812 5813 5814 5815 5817 5817 5818 5819 5819 5820 5821 5821 5821 5821 5821 5820 5820 5819 5818 5818 5817 5817 5816 5815 5815 5814 5814 5813 5812 5812 5811 5811
5812 5811 5810 5808 5806 5804 5801 5800 5801 5802 5800 5799 5797 5796 5795 5794 5794 5794 5793 5793 5793 5793 5794 5793 5792 5791 5790 5790 5790 5791 5792 5792 5792 5792 5792 5793 5794 5794 5794 5794 5795 5796 5797 5799 5800 5801 5802 5802 5803 5804 5805 5807 5808 5810 5812 5812 5813 5815 5816 5817 5817 5818 5818 5819 5819 5819 5819 5819 5819 5818 5818 5817 5816 5816 5815 5814 5814 5814 5813 5813 5812 5811 5811 5810 5810
5812 5811 5810 5808 5806 5804 5801 5799 5799 5800 5799 5798 5796 5795 5794 5793 5794 5794 5793 5792 5791 5791 5791 5790 5790 5789 5788 5788 5788 5788 5789 5790 5791 5791 5791 5792 5793 5792 5791 5791 5792 5793 5794 5796 5798 5799 5799 5800 5801 5802 5803 5805 5806 5808 5810 5810 5812 5813 5814 5815 5816 5817 5817 5817 5818 5817 5817 5817 5817 5817 5816 5816 5815 5814 5814 5813 5813 5813 5812 5812 5811 5810 5810 5809 5809
5811 5811 5810 5808 5806 5804 5801 5798 5797 5798 5798 5797 5795 5793 5793 5794 5794 5794 5792 5791 5790 5789 5789 5788 5787 5787 5787 5787 5786 5785 5785 5787 5789 5791 5791 5791 5791 5790 5789 5789 5789 5790 5792 5794 5795 5797 5797 5798 5799 5801 5802 5803 5805 5806 5808 5809 5810 5812 5813 5814 5814 5815 5815 5816 5816 5816 5815 5815 5815 5815 5815 5814 5814 5813 5813 5812 5812 5812 5811 5810 5810 5809 5809 5809 5809
5810 5810 5809 5808 5807 5804 5802 5799 5796 5795 5796 5796 5794 5791 5791 5793 5794 5794 5792 5791 5790 5789 5787 5787 5786 5786 5786 5786 5785 5784 5784 5784 5786 5788 5789 5789 5789 5788 5787 5787 5787 5789 5790 5791 5793 5795 5796 5797 5798 5799 5800 5801 5802 5804 5806 5807 5809 5810 5812 5812 5813 5813 5813 5814 5814 5814 5814 5814 5814 5814 5813 5813 5813 5812 5812 5811 5811 5811 5810 5809 5809 5809 5808 5808 5808
5808 5808 5808 5808 5807 5805 5802 5799 5796 5794 5794 5794 5793 5791 5790 5792 5793 5792 5790 5789 5789 5788 5787 5786 5785 5785 5785 5785 5784 5784 5783 5783 5784 5785 5786 5787 5787 5786 5785 5784 5785 5787 5788 5789 5791 5793 5794 5795 5796 5797 5798 5799 5800 5802 5804 5806 5807 5808 5810 5810 5811 5811 5811 5812 5813 5813 5813 5812 5812 5812 5812 5812 5811 5811 5811 5810 5810 5810 5809 5808 5808 5808 5808 5808 5808
5806 5806 5807 5807 5806 5805 5803 5800 5797 5794 5792 5791 5791 5790 5790 5792 5792 5790 5788 5787 5787 5787 5786 5786 5785 5784 5784 5783 5783 5783 5783 5783 5783 5783 5784 5784 5784 5784 5783 5783 5784 5785 5785 5787 5789 5791 5792 5793 5794 5795 5796 5797 5799 5800 5802 5804 5805 5806 5808 5809 5809 5809 5810 5811 5811 5812 5812 5811 5810 5811 5810 5810 5810 5810 5810 5809 5809 5808 5808 5807 5807 5807 5807 5807 5807
5803 5804 5805 5805 5805 5804 5803 5800 5797 5794 5792 5789 5788 5789 5789 5791 5793 5792 5789 5787 5786 5786 5786 5786 5785 5784 5783 5782 5781 5782 5782 5783 5783 5783 5782 5782 5782 5781 5781 5782 5783 5783 5784 5785 5787 5788 5789 5791 5793 5794 5795 5796 5797 5799 5800 5802 5803 5804 5805 5806 5807 5808 5809 5809 5810 5811 5811 5810 5809 5810 5809 5809 5809 5809 5808 5808 5808 5807 5807 5806 5806 5806 5806 5806 5806
5800 5801 5802 5803 5803 5803 5802 5801 5798 5795 5793 5789 5787 5787 5788 5789 5792 5793 5792 5789 5787 5785 5785 5785 5785 5784 5783 5781 5780 5780 5780 5781 5781 5781 5780 5780 5780 5780 5780 5780 5781 5781 5782 5783 5784 5786 5788 5790 5792 5794 5795 5795 5796 5797 5799 5800 5801 5802 5803 5804 5805 5806 5807 5807 5808 5809 5810 5809 5808 5809 5809 5808 5808 5808 5807 5807 5806 5806 5806 5805 5805 5805 5805 5805 5805
5797 5798 5799 5800 5801 5802 5801 5800 5798 5796 5793 5791 5787 5786 5786 5788 5790 5791 5792 5791 5788 5786 5785 5784 5784 5782 5781 5780 5779 5778 5778 5778 5779 5778 5778 5778 5778 5778 5779 5779 5779 5780 5780 5782 5783 5786 5788 5789 5790 5792 5794 5795 5795 5796 5797 5798 5799 5800 5802 5803 5804 5805 5806 5806 5806 5807 5808 5808 5807 5807 5807 5807 5807 5807 5806 5806 5805 5805 5804 5804 5804 5805 5804 5804 5804
5794 5795 5796 5797 5798 5799 5800 5799 5798 5796 5794 5792 5789 5786 5785 5786 5788 5789 5790 5790 5788 5787 5785 5783 5782 5781 5779 5778 5777 5776 5776 5776 5776 5776 5775 5775 5775 5776 5778 5778 5778 5778 5779 5780 5782 5785 5786 5786 5786 5789 5791 5792 5794 5795 5796 5797 5797 5799 5800 5802 5803 5804 5805 5805 5805 5806 5807 5808 5806 5805 5805 5805 5805 5805 5805 5805 5804 5804 5803 5803 5803 5803 5803 5804 5804
5792 5792 5792 5793 5795 5796 5797 5798 5797 5795 5793 5792 5790 5788 5786 5785 5785 5786 5787 5787 5787 5786 5784 5782 5781 5779 5778 5776 5775 5774 5773 5773 5774 5774 5773 5773 5772 5773 5775 5775 5775 5776 5776 5778 5780 5782 5783 5783 5784 5786 5788 5789 5791 5793 5794 5795 5796 5797 5799 5800 5801 5802 5803 5803 5804 5805 5806 5806 5805 5803 5802 5803 5804 5804 5804 5804 5804 5803 5802 5802 5802 5802 5803 5803 5804
5792 5790 5789 5790 5791 5793 5794 5795 5795 5794 5793 5791 5790 5789 5787 5786 5785 5785 5785 5785 5785 5784 5783 5782 5780 5778 5777 5775 5774 5773 5772 5771 5771 5771 5772 5772 5772 5772 5771 5771 5772 5773 5774 5775 5778 5779 5779 5780 5783 5785 5786 5787 5789 5790 5792 5794 5795 5796 5797 5798 5799 5800 5801 5802 5803 5803 5804 5804 5804 5803 5802 5801 5802 5803 5803 5803 5803 5802 5801 5800 5801 5802 5802 5802 5803
5791 5787 5784 5785 5787 5789 5791 5792 5793 5793 5792 5791 5790 5788 5788 5787 5786 5784 5783 5783 5783 5783 5783 5781 5780 5778 5776 5775 5774 5773 5772 5771 5770 5770 5771 5771 5772 5772 5770 5770 5770 5770 5771 5773 5774 5776 5777 5778 5781 5782 5784 5785 5787 5788 5790 5792 5794 5795 5796 5797 5798 5799 5800 5800 5801 5801 5802 5802 5801 5802 5802 5802 5801 5802 5802 5802 5801 5800 5800 5800 5800 5801 5802 5802 5802
5789 5784 5780 5780 5783 5785 5787 5788 5790 5790 5790 5789 5789 5788 5787 5786 5786 5784 5783 5782 5782 5782 5782 5781 5779 5778 5776 5775 5774 5773 5773 5771 5771 5770 5770 5770 5770 5770 5770 5769 5769 5769 5769 5770 5772 5773 5774 5776 5778 5779 5781 5783 5785 5787 5787 5790 5793 5794 5795 5796 5797 5798 5799 5799 5800 5800 5800 5800 5800 5800 5801 5801 5800 5801 5801 5800 5799 5799 5799 5800 5800 5800 5801 5801 5801
5788 5784 5779 5777 5778 5780 5783 5784 5786 5787 5787 5787 5787 5786 5786 5785 5785 5784 5782 5781 5780 5780 5780 5780 5779 5778 5776 5775 5774 5773 5773 5771 5770 5769 5769 5769 5768 5768 5768 5769 5769 5768 5769 5769 5770 5771 5772 5774 5775 5777 5779 5781 5782 5784 5786 5788 5792 5793 5793 5794 5795 5796 5798 5799 5799 5799 5799 5798 5798 5799 5800 5799 5798 5799 5799 5798 5798 5799 5799 5799 5800 5800 5801 5801 5800
5787 5784 5780 5776 5774 5775 5778 5781 5782 5784 5784 5784 5784 5784 5784 5783 5783 5782 5781 5780 5779 5779 5779 5779 5778 5777 5776 5775 5774 5773 5772 5771 5770 5769 5769 5768 5767 5767 5766 5767 5767 5767 5768 5768 5769 5769 5770 5771 5773 5774 5776 5778 5780 5782 5784 5787 5789 5791 5791 5792 5794 5795 5796 5798 5799 5799 5798 5797 5798 5798 5798 5798 5798 5798 5798 5797 5796 5798 5798 5797 5797 5799 5800 5800 5800
5785 5783 5780 5777 5774 5773 5773 5776 5778 5780 5781 5781 5781 5781 5781 5780 5780 5780 5779 5778 5778 5778 5778 5778 5777 5776 5775 5774 5773 5772 5771 5770 5769 5769 5768 5767 5767 5766 5765 5765 5765 5765 5765 5766 5767 5767 5768 5769 5771 5773 5775 5777 5778 5780 5782 5784 5786 5788 5789 5790 5792 5793 5794 5796 5797 5797 5797 5796 5796 5797 5797 5797 5798 5798 5798 5797 5795 5796 5797 5796 5796 5797 5799 5800 5800
5782 5782 5780 5777 5775 5772 5770 5771 5774 5776 5777 5778 5778 5778 5778 5777 5777 5777 5777 5776 5776 5776 5776 5776 5776 5775 5774 5773 5772 5771 5770 5769 5768 5768 5767 5766 5765 5765 5764 5764 5764 5764 5763 5764 5764 5765 5766 5767 5769 5772 5774 5776 5778 5779 5780 5782 5784 5786 5788 5789 5790 5792 5793 5794 5794 5795 5795 5795 5795 5795 5796 5796 5797 5797 5797 5796 5795 5795 5796 5796 5795 5796 5798 5799 5800
5779 5779 5777 5775 5773 5771 5769 5768 5770 5772 5773 5774 5774 5774 5774 5773 5773 5774 5774 5774 5774 5774 5773 5774 5774 5774 5773 5772 5770 5770 5769 5768 5767 5766 5766 5765 5765 5764 5763 5763 5764 5763 5763 5762 5762 5763 5764 5765 5767 5770 5772 5774 5776 5778 5780 5780 5782 5785 5786 5787 5789 5790 5791 5792 5792 5793 5794 5794 5794 5794 5794 5795 5796 5796 5796 5795 5794 5794 5796 5796 5796 5796 5797 5798 5799
5776 5775 5774 5772 5769 5767 5767 5767 5767 5769 5769 5770 5770 5770 5770 5770 5770 5771 5771 5771 5771 5771 5771 5771 5771 5771 5771 5771 5769 5768 5768 5767 5766 5766 5765 5764 5763 5763 5762 5762 5762 5762 5762 5762 5762 5762 5762 5763 5765 5768 5770 5772 5774 5776 5779 5779 5780 5783 5784 5785 5787 5788 5789 5790 5790 5791 5791 5792 5793 5793 5793 5794 5795 5795 5794 5795 5795 5795 5796 5796 5796 5796 5797 5797 5798
5772 5770 5769 5768 5766 5764 5763 5763 5764 5765 5765 5765 5765 5766 5766 5766 5766 5767 5767 5768 5768 5768 5768 5768 5768 5769 5769 5769 5768 5767 5766 5765 5765 5764 5764 5763 5762 5761 5761 5761 5761 5761 5761 5761 5762 5762 5761 5762 5763 5766 5768 5770 5771 5774 5776 5776 5778 5780 5781 5783 5784 5786 5787 5788 5789 5789 5790 5790 5791 5791 5792 5792 5794 5794 5793 5794 5795 5795 5795 5795 5796 5797 5797 5797 5798